{"data":{"norad_id":53063,"epoch":"2026-05-25T01:21:13.028256Z","epoch_age_seconds":64187,"freshness":"FRESH","line1":"1 53063U 22077W   26145.05640079  .00005705  00000+0  39943-3 0  9991","line2":"2 53063  97.4477 326.0578 0001285 136.9444 223.1884 15.05621147 84052","mean_motion":15.05621147,"eccentricity":0.0001285,"inclination_deg":97.4477,"raan_deg":326.0578,"arg_perigee_deg":136.9444,"mean_anomaly_deg":223.1884,"bstar":0.00039943,"rev_number":8405,"period_min":95.641589709951,"perigee_km":548.70944500875,"apogee_km":550.48987333015,"semimajor_km":6927.7366591694,"source":"CELESTRAK","updated_at":"2026-05-25T13:38:17.309864Z"}}